| time (UTC) | temp F | wind direction | speed knots | gust knots | rain 1hr in | rain 24hr in | rain mn in | humidity % | barometer mb |
| 20260506004516 | 71 | 23 | 6.1 | 10.4 | 0.00 | 0.36 | 0.00 | 29 | 1015.5 |
| 20260506003516 | 71 | 338 | 7.0 | 12.2 | 0.00 | 0.36 | 0.00 | 30 | 1015.6 |
| 20260506002517 | 71 | 0 | 6.1 | 9.6 | 0.00 | 0.36 | 0.00 | 29 | 1015.6 |
| 20260506001516 | 72 | 23 | 7.0 | 11.3 | 0.00 | 0.36 | 0.00 | 29 | 1015.7 |
| 20260506000516 | 72 | 23 | 5.2 | 13.0 | 0.00 | 0.36 | 0.00 | 28 | 1015.7 |
| 20260505235516 | 72 | 23 | 7.0 | 12.2 | 0.00 | 0.36 | 0.00 | 28 | 1015.8 |
| 20260505234517 | 72 | 23 | 5.2 | 10.4 | 0.00 | 0.36 | 0.00 | 29 | 1015.9 |
| 20260505233537 | 72 | 338 | 6.1 | 13.9 | 0.00 | 0.36 | 0.00 | 27 | 1015.7 |
| 20260505232556 | 73 | 45 | 1.7 | 6.1 | 0.00 | 0.36 | 0.00 | 31 | 1016.0 |
| 20260505231536 | 71 | 338 | 3.5 | 7.8 | 0.00 | 0.36 | 0.00 | 33 | 1016.1 |
| 20260505230516 | 71 | 315 | 3.5 | 11.3 | 0.00 | 0.36 | 0.00 | 34 | 1015.9 |
| 20260505225516 | 70 | 0 | 8.7 | 16.5 | 0.00 | 0.36 | 0.00 | 31 | 1016.0 |
| 20260505224516 | 70 | 338 | 7.8 | 13.9 | 0.00 | 0.36 | 0.00 | 31 | 1015.8 |
| 20260505223517 | 70 | 45 | 2.6 | 11.3 | 0.00 | 0.36 | 0.00 | 32 | 1015.9 |
| 20260505222516 | 70 | 338 | 7.8 | 13.9 | 0.00 | 0.36 | 0.00 | 33 | 1015.9 |
| 20260505221516 | 69 | 338 | 4.3 | 8.7 | 0.00 | 0.36 | 0.00 | 32 | 1016.0 |
| 20260505220516 | 69 | 338 | 4.3 | 10.4 | 0.00 | 0.36 | 0.00 | 36 | 1016.4 |
| 20260505215516 | 69 | 23 | 3.5 | 10.4 | 0.00 | 0.38 | 0.00 | 33 | 1016.5 |
| 20260505214516 | 68 | 0.0 | 2.6 | 0.00 | 0.38 | 0.00 | 37 | 1016.4 | |
| 20260505213516 | 68 | 338 | 4.3 | 10.4 | 0.00 | 0.38 | 0.00 | 37 | 1016.4 |
| 20260505212516 | 67 | 23 | 2.6 | 8.7 | 0.00 | 0.38 | 0.00 | 36 | 1016.4 |
| 20260505211517 | 67 | 248 | 1.7 | 7.8 | 0.00 | 0.38 | 0.00 | 37 | 1016.3 |
| 20260505210516 | 67 | 23 | 5.2 | 9.6 | 0.00 | 0.38 | 0.00 | 40 | 1016.4 |
| 20260505205516 | 67 | 90 | 0.9 | 6.1 | 0.00 | 0.38 | 0.00 | 41 | 1016.5 |
| 20260505204536 | 66 | 315 | 2.6 | 8.7 | 0.00 | 0.38 | 0.00 | 41 | 1016.2 |
| 20260505203516 | 66 | 338 | 5.2 | 10.4 | 0.00 | 0.38 | 0.00 | 42 | 1016.4 |
| 20260505202516 | 66 | 0.0 | 3.5 | 0.00 | 0.38 | 0.00 | 45 | 1016.5 | |
| 20260505201516 | 65 | 135 | 0.9 | 5.2 | 0.00 | 0.38 | 0.00 | 49 | 1016.7 |
| 20260505200516 | 64 | 203 | 0.9 | 4.3 | 0.00 | 0.38 | 0.00 | 52 | 1016.8 |
| 20260505195516 | 63 | 158 | 1.7 | 6.1 | 0.00 | 0.38 | 0.00 | 53 | 1016.5 |
| 20260505194516 | 62 | 225 | 5.2 | 8.7 | 0.00 | 0.38 | 0.00 | 56 | 1016.4 |
| 20260505193516 | 63 | 293 | 2.6 | 7.0 | 0.00 | 0.38 | 0.00 | 57 | 1016.7 |
| 20260505192516 | 63 | 135 | 2.6 | 6.1 | 0.00 | 0.38 | 0.00 | 58 | 1016.5 |
| 20260505191516 | 61 | 203 | 1.7 | 4.3 | 0.00 | 0.38 | 0.00 | 58 | 1016.5 |
| 20260505190516 | 60 | 270 | 1.7 | 5.2 | 0.00 | 0.38 | 0.00 | 59 | 1016.4 |
| 20260505185516 | 60 | 225 | 1.7 | 6.1 | 0.00 | 0.38 | 0.00 | 60 | 1016.5 |
| 20260505184516 | 59 | 270 | 0.9 | 2.6 | 0.00 | 0.38 | 0.00 | 59 | 1016.2 |
| 20260505183516 | 59 | 248 | 0.9 | 4.3 | 0.00 | 0.38 | 0.00 | 64 | 1016.3 |
| 20260505182516 | 59 | 0.0 | 3.5 | 0.00 | 0.38 | 0.00 | 64 | 1016.4 | |
| 20260505181516 | 58 | 180 | 2.6 | 7.8 | 0.00 | 0.38 | 0.00 | 65 | 1016.4 |
| 20260505180516 | 57 | 0.0 | 2.6 | 0.00 | 0.38 | 0.00 | 66 | 1016.1 | |
| 20260505175516 | 57 | 135 | 1.7 | 5.2 | 0.00 | 0.38 | 0.00 | 68 | 1016.0 |
| 20260505174516 | 56 | 225 | 0.9 | 6.1 | 0.00 | 0.38 | 0.00 | 70 | 1016.0 |
| 20260505173516 | 56 | 0.0 | 0.0 | 0.00 | 0.38 | 0.00 | 70 | 1015.9 | |
| 20260505172516 | 55 | 158 | 3.5 | 7.0 | 0.00 | 0.38 | 0.00 | 72 | 1015.5 |
| 20260505171516 | 54 | 158 | 6.1 | 9.6 | 0.00 | 0.38 | 0.00 | 71 | 1015.5 |
| 20260505170516 | 54 | 0.0 | 0.0 | 0.00 | 0.38 | 0.00 | 73 | 1015.5 | |
| 20260505165516 | 53 | 0.0 | 0.0 | 0.00 | 0.38 | 0.00 | 73 | 1015.4 | |
| 20260505164516 | 52 | 0.0 | 0.0 | 0.00 | 0.38 | 0.00 | 77 | 1015.2 | |
| 20260505163516 | 51 | 0.0 | 0.0 | 0.00 | 0.38 | 0.00 | 76 | 1014.8 | |
| 20260505162516 | 51 | 0.0 | 0.0 | 0.00 | 0.38 | 0.00 | 77 | 1014.8 | |
| 20260505161516 | 51 | 0.0 | 0.0 | 0.00 | 0.38 | 0.00 | 77 | 1014.7 | |
| 20260505160516 | 51 | 0.0 | 0.0 | 0.00 | 0.38 | 0.00 | 78 | 1014.7 | |
| 20260505152516 | 49 | 0.0 | 0.0 | 0.00 | 0.38 | 0.00 | 80 | 1014.0 | |
| 20260505151516 | 49 | 0.0 | 0.0 | 0.00 | 0.38 | 0.00 | 80 | 1013.9 | |
| 20260505150516 | 49 | 0.0 | 0.0 | 0.00 | 0.38 | 0.00 | 81 | 1013.8 | |
| 20260505140515 | 47 | 0.0 | 0.0 | 0.00 | 0.38 | 0.00 | 88 | 1013.3 | |
| 20260505124516 | 47 | 135 | 3.5 | 7.0 | 0.00 | 0.38 | 0.00 | 83 | 1014.1 |
| 20260505123536 | 47 | 0.0 | 0.0 | 0.00 | 0.38 | 0.00 | 83 | 1014.1 | |
| 20260505122516 | 48 | 0.0 | 0.0 | 0.00 | 0.38 | 0.00 | 83 | 1013.9 | |
| 20260505121515 | 47 | 0.0 | 0.0 | 0.00 | 0.38 | 0.00 | 82 | 1013.9 | |
| 20260505120515 | 47 | 0.0 | 0.0 | 0.00 | 0.38 | 0.00 | 85 | 1014.3 | |
| 20260505115516 | 47 | 0.0 | 0.0 | 0.00 | 0.38 | 0.00 | 85 | 1014.3 | |
| 20260505114516 | 47 | 158 | 5.2 | 7.8 | 0.00 | 0.38 | 0.00 | 85 | 1014.2 |
| 20260505113515 | 47 | 135 | 1.7 | 8.7 | 0.00 | 0.38 | 0.00 | 81 | 1014.4 |
| 20260505112516 | 47 | 0.0 | 0.0 | 0.00 | 0.38 | 0.00 | 82 | 1014.4 | |
| 20260505111516 | 47 | 0.0 | 0.0 | 0.00 | 0.38 | 0.00 | 83 | 1014.6 | |
| 20260505110515 | 46 | 135 | 0.9 | 7.0 | 0.00 | 0.38 | 0.00 | 84 | 1014.8 |
| 20260505101515 | 46 | 180 | 2.6 | 4.3 | 0.00 | 0.38 | 0.00 | 86 | 1014.8 |
| 20260505100516 | 47 | 158 | 3.5 | 5.2 | 0.00 | 0.38 | 0.00 | 84 | 1014.9 |
| 20260505095515 | 47 | 135 | 5.2 | 6.1 | 0.00 | 0.38 | 0.00 | 81 | 1014.6 |
| 20260505094515 | 47 | 135 | 3.5 | 6.1 | 0.00 | 0.38 | 0.00 | 82 | 1014.5 |
| 20260505093535 | 47 | 113 | 5.2 | 9.6 | 0.00 | 0.38 | 0.00 | 82 | 1014.9 |
| 20260505092515 | 46 | 113 | 6.1 | 8.7 | 0.00 | 0.38 | 0.00 | 85 | 1014.7 |
| 20260505091515 | 46 | 158 | 7.8 | 10.4 | 0.00 | 0.38 | 0.00 | 87 | 1015.0 |
| 20260505090515 | 46 | 135 | 0.9 | 9.6 | 0.00 | 0.38 | 0.00 | 86 | 1014.9 |
| 20260505085515 | 46 | 0.0 | 0.0 | 0.00 | 0.38 | 0.00 | 88 | 1015.0 | |
| 20260505084535 | 45 | 0.0 | 0.0 | 0.00 | 0.38 | 0.00 | 89 | 1015.1 | |
| 20260505083535 | 45 | 0.0 | 0.0 | 0.00 | 0.38 | 0.00 | 90 | 1015.5 | |
| 20260505082515 | 45 | 0.0 | 6.1 | 0.00 | 0.38 | 0.00 | 92 | 1015.8 | |
| 20260505081515 | 46 | 158 | 7.8 | 9.6 | 0.00 | 0.38 | 0.00 | 92 | 1015.5 |
| 20260505080515 | 46 | 135 | 4.3 | 6.1 | 0.00 | 0.38 | 0.00 | 93 | 1015.6 |
| 20260505075515 | 45 | 135 | 5.2 | 7.8 | 0.00 | 0.38 | 0.00 | 94 | 1015.3 |
| 20260505074515 | 45 | 135 | 4.3 | 6.1 | 0.00 | 0.38 | 0.00 | 94 | 1015.3 |
| 20260505073515 | 46 | 135 | 5.2 | 7.0 | 0.00 | 0.38 | 0.00 | 95 | 1015.2 |
| 20260505072515 | 46 | 135 | 3.5 | 4.3 | 0.00 | 0.38 | 0.00 | 95 | 1015.0 |
| 20260505071515 | 46 | 158 | 2.6 | 3.5 | 0.00 | 0.38 | 0.00 | 95 | 1015.3 |
| 20260505070535 | 46 | 135 | 5.2 | 6.1 | 0.00 | 0.38 | 0.00 | 95 | 1015.3 |
| 20260505065515 | 46 | 135 | 7.0 | 8.7 | 0.00 | 0.38 | 0.38 | 95 | 1015.3 |
| 20260505064515 | 46 | 113 | 4.3 | 7.0 | 0.00 | 0.38 | 0.38 | 94 | 1014.9 |
| 20260505063517 | 46 | 135 | 7.0 | 9.6 | 0.00 | 0.38 | 0.38 | 94 | 1015.0 |
| 20260505062517 | 47 | 135 | 4.3 | 6.1 | 0.00 | 0.38 | 0.38 | 95 | 1014.8 |
| 20260505061517 | 46 | 68 | 0.9 | 4.3 | 0.00 | 0.38 | 0.38 | 95 | 1014.5 |
| 20260505060517 | 46 | 315 | 2.6 | 8.7 | 0.00 | 0.38 | 0.38 | 95 | 1014.2 |
| 20260505055517 | 46 | 0.0 | 0.0 | 0.01 | 0.38 | 0.38 | 95 | 1014.1 | |
| 20260505054517 | 47 | 0.0 | 0.0 | 0.02 | 0.38 | 0.38 | 94 | 1014.6 | |
| 20260505053517 | 46 | 0.0 | 0.0 | 0.02 | 0.38 | 0.38 | 94 | 1014.5 | |
| 20260505052517 | 46 | 23 | 2.6 | 8.7 | 0.02 | 0.38 | 0.38 | 94 | 1014.8 |
| 20260505051517 | 47 | 0.0 | 0.0 | 0.02 | 0.38 | 0.38 | 94 | 1015.0 | |
| 20260505050517 | 47 | 158 | 1.7 | 4.3 | 0.02 | 0.38 | 0.38 | 94 | 1014.5 |
| 20260505041517 | 46 | 158 | 3.5 | 6.1 | 0.01 | 0.36 | 0.36 | 94 | 1013.9 |
| 20260505040537 | 46 | 158 | 3.5 | 5.2 | 0.01 | 0.36 | 0.36 | 94 | 1013.6 |
| 20260505035517 | 46 | 158 | 4.3 | 6.1 | 0.01 | 0.36 | 0.36 | 94 | 1013.7 |
| 20260505034517 | 46 | 158 | 5.2 | 7.8 | 0.01 | 0.36 | 0.36 | 94 | 1013.1 |
| 20260505033517 | 46 | 135 | 7.8 | 11.3 | 0.01 | 0.36 | 0.36 | 94 | 1013.0 |
| 20260505032517 | 46 | 158 | 6.1 | 7.8 | 0.01 | 0.36 | 0.36 | 94 | 1013.2 |
| 20260505031517 | 46 | 158 | 6.1 | 7.8 | 0.00 | 0.35 | 0.35 | 94 | 1013.4 |
| 20260505030516 | 46 | 180 | 4.3 | 7.0 | 0.00 | 0.35 | 0.35 | 93 | 1013.4 |
| 20260505025517 | 47 | 158 | 7.8 | 13.0 | 0.02 | 0.35 | 0.35 | 94 | 1013.2 |
| 20260505024517 | 48 | 135 | 7.8 | 11.3 | 0.02 | 0.35 | 0.35 | 94 | 1012.8 |
| 20260505023516 | 47 | 135 | 8.7 | 12.2 | 0.03 | 0.35 | 0.35 | 94 | 1012.2 |
| 20260505022516 | 47 | 158 | 8.7 | 13.9 | 0.03 | 0.35 | 0.35 | 94 | 1012.4 |
| 20260505021557 | 47 | 158 | 8.7 | 13.0 | 0.05 | 0.35 | 0.35 | 94 | 1012.2 |
| 20260505020516 | 47 | 135 | 7.8 | 11.3 | 0.33 | 0.35 | 0.35 | 93 | 1013.0 |
| 20260505015537 | 47 | 135 | 7.8 | 10.4 | 0.31 | 0.33 | 0.33 | 93 | 1013.1 |
| 20260505014537 | 47 | 135 | 7.8 | 13.0 | 0.31 | 0.33 | 0.33 | 93 | 1012.9 |
| 20260505013536 | 47 | 158 | 7.8 | 11.3 | 0.30 | 0.32 | 0.32 | 92 | 1013.0 |
| 20260505012516 | 47 | 180 | 11.3 | 15.6 | 0.30 | 0.32 | 0.32 | 91 | 1012.7 |
| 20260505011517 | 48 | 135 | 9.6 | 14.8 | 0.28 | 0.30 | 0.30 | 90 | 1013.0 |
| 20260505010537 | 51 | 135 | 23.5 | 31.3 | 0.00 | 0.02 | 0.02 | 71 | 1013.1 |
| 20260505005557 | 57 | 158 | 9.6 | 17.4 | 0.00 | 0.02 | 0.02 | 64 | 1013.9 |